Regional Weather Roundup
Issued by NWS

Home | Current Version | Previous Version | Graphics & Text | Print | Product List | Glossary Off
Versions: 1 2 3 4 5 6 7 8 9 10 11 12 13 14 15 16 17 18 19 20 21 22 23 24 25 26 27 28 29 30 31 32 33 34 35 36 37 38 39 40 41 42 43 44 45 46 47 48 49 50

000
ASUS43 KTOP 201159
RWRKS

WEATHER ROUNDUP FOR KANSAS
NATIONAL WEATHER SERVICE GOODLAND KS
600 AM CST FRI JAN 20 2017

NOTE:  "FAIR" INDICATES FEW OR NO CLOUDS BELOW 12,000 FEET WITH NO
SIGNIFICANT WEATHER AND/OR OBSTRUCTIONS TO VISIBILITY.

KSZ001>006-013>018-027>032-041>047-201300-
NORTHWEST KANSAS

CITY           SKY/WX    TMP DP  RH WIND       PRES   REMARKS
GOODLAND       FOG       29  29 100 S5        29.45F VSB 3/4
6HR MIN TEMP:  29; 6HR MAX TEMP:  33;

HAYS           FOG       40  40 100 SW5       29.52R VSB 1/4
HILL CITY      FOG       37  37 100 CALM      29.50S VSB 1/4
6HR MIN TEMP:  37; 6HR MAX TEMP:  40;

RUSSELL        FOG       41  41 100 CALM      29.49R VSB 1/4
6HR MIN TEMP:  40; 6HR MAX TEMP:  43;

$$

KSZ061>065-074>080-084>089-201300-
SOUTHWEST KANSAS

CITY           SKY/WX    TMP DP  RH WIND       PRES   REMARKS
DODGE CITY     CLOUDY    37  35  92 NW3       29.48F FOG
6HR MIN TEMP:  29; 6HR MAX TEMP:  37;

ELKHART          N/A     30  27  89 CALM        N/A
GARDEN CITY    CLOUDY    37  35  92 SW7       29.50R
6HR MIN TEMP:  29; 6HR MAX TEMP:  37;

GREAT BEND     LGT RAIN  41  41 100 S3        29.51S VSB 1/2
LIBERAL        CLOUDY    37  34  87 NW6       29.48F
$$

KSZ066>073-081>083-090>101-201300-
SOUTHEAST KANSAS

CITY           SKY/WX    TMP DP  RH WIND       PRES   REMARKS
CHANUTE        FOG       48  47  96 SE6       29.54F VSB 1
6HR MIN TEMP:  48; 6HR MAX TEMP:  49;

COFFEYVILLE    CLOUDY    48  47  96 SE6       29.54S FOG
6HR MIN TEMP:  48; 6HR MAX TEMP:  49;

HUTCHINSON     FOG       44  43  96 CALM      29.52R VSB 1/4
6HR MIN TEMP:  43; 6HR MAX TEMP:  44;

MEDICINE LODGE   N/A     40  39  97 N6        29.45F
NEWTON         FOG       44  44 100 SE5       29.52R VSB 1/4
PARSONS        CLOUDY    49  47  93 SE5       29.55R FOG
6HR MIN TEMP:  49; 6HR MAX TEMP:  50;

WICHITA INTL   FOG       46  46 100 E3        29.52R VSB 1/4
6HR MIN TEMP:  42; 6HR MAX TEMP:  46;

WICHITA JABRA  FOG       46  46 100 S7        29.53R VSB 1/4
6HR MIN TEMP:  42; 6HR MAX TEMP:  46;

WICHITA MCCONL FOG       46  46 100 SE5       29.51S VSB 1/2
WINFIELD       CLOUDY    47  46  97 E6        29.51R
6HR MIN TEMP:  43; 6HR MAX TEMP:  48;

$$

KSZ007>012-019>026-033>040-048>060-102>105-201300-
NORTHEAST KANSAS

CITY           SKY/WX    TMP DP  RH WIND       PRES   REMARKS
CONCORDIA      CLOUDY    40  40 100 CALM      29.52F
6HR MIN TEMP:  39; 6HR MAX TEMP:  42;

EMPORIA        CLOUDY    44  44 100 E6        29.52F FOG
6HR MIN TEMP:  41; 6HR MAX TEMP:  44;

LAWRENCE       FOG       44  44 100 NE3       29.56F VSB 1/2
6HR MIN TEMP:  43; 6HR MAX TEMP:  45;

MANHATTAN      CLOUDY    44  43  96 N3        29.54F FOG
6HR MIN TEMP:  43; 6HR MAX TEMP:  44;

OLATHE IND     CLOUDY    45  45 100 SE7       29.57S FOG
6HR MIN TEMP:  45; 6HR MAX TEMP:  46;

OLATHE EXE     CLOUDY    44  44 100 SE7       29.57S FOG
6HR MIN TEMP:  44; 6HR MAX TEMP:  45;

SALINA           N/A    N/A N/A N/A MISG        N/A
TOPEKA BILLARD FOG       44  42  93 NE3       29.55F VSB 1
6HR MIN TEMP:  44; 6HR MAX TEMP:  45;

TOPEKA FORBES  FOG       46  44  93 E5        29.55F VSB 1/4
6HR MIN TEMP:  45; 6HR MAX TEMP:  47;

$$



USA.gov is the U.S. government's official web portal to all federal, state and local government web resources and services.